Torna al catalogo

FENGYUN 1C DEB

AttivoSSO
NORAD 35140·DEBRIS·🇨🇳 China

Lanciato May 10, 1999 da Taiyuan Satellite Launch Center

Loading…

Prossimi Passaggi (prossime 24 ore)

TLE

AggiornatoSource: Space-Track

Epoca: Sep 12, 2026, 09:13 UTC

1 35140U 99025DLU 26255.38404827  .00000158  00000-0  62843-4 0  9995
2 35140  98.4769 230.9241 0289226 249.1008 107.8988 14.21602986911665

Traccia FENGYUN 1C DEB in tempo reale con AllMySat

Download on the App Store